DLH049 EDDV-EDDF

Flight info

Callsign DLH049
Flight time 0h 39m
Altitude 17000
Route TOLTA1F TOLTA T154 ROBAR T152 KERAX KERAX5D
Aircraft A320/M-SDE2E3FGIJ1LORWXYZ/HB1

Departure

Time 2026-04-15 07:08
Airport Hannover Airport (EDDV)

Arrival

Time 2026-04-15 07:48
Airport Frankfurt Main Airport (EDDF)
Time Latitude Longitude Altitude Speed Heading
2026-04-15 06:38 52.45807 9.69541 179 ft 0 kts 52°
2026-04-15 06:55 52.45795 9.69517 180 ft 4 kts 49°
2026-04-15 06:55 52.45777 9.69485 180 ft 4 kts 43°
2026-04-15 06:55 52.45756 9.69456 180 ft 4 kts 37°
2026-04-15 06:56 52.45734 9.69431 180 ft 4 kts 29°
2026-04-15 06:56 52.45710 9.69413 180 ft 4 kts 15°
2026-04-15 06:56 52.45694 9.69407 180 ft 0 kts
2026-04-15 06:59 52.45696 9.69407 180 ft 2 kts
2026-04-15 07:00 52.45737 9.69396 179 ft 10 kts 332°
2026-04-15 07:00 52.45761 9.69282 178 ft 11 kts 272°
2026-04-15 07:00 52.45742 9.69167 178 ft 10 kts 223°
2026-04-15 07:00 52.45678 9.69147 179 ft 10 kts 179°
2026-04-15 07:01 52.45623 9.69198 181 ft 9 kts 111°
2026-04-15 07:01 52.45618 9.69289 181 ft 7 kts 90°
2026-04-15 07:01 52.45616 9.69403 180 ft 13 kts 92°
2026-04-15 07:01 52.45611 9.69562 180 ft 14 kts 93°
2026-04-15 07:02 52.45606 9.69723 182 ft 14 kts 93°
2026-04-15 07:02 52.45601 9.69893 180 ft 17 kts 92°
2026-04-15 07:02 52.45595 9.70108 180 ft 20 kts 93°
2026-04-15 07:02 52.45589 9.70342 180 ft 22 kts 91°
2026-04-15 07:03 52.45582 9.70565 178 ft 18 kts 92°
2026-04-15 07:03 52.45578 9.70752 180 ft 17 kts 92°
2026-04-15 07:03 52.45573 9.70949 178 ft 16 kts 94°
2026-04-15 07:03 52.45537 9.71080 180 ft 12 kts 145°
2026-04-15 07:04 52.45496 9.71102 181 ft 0 kts 174°
2026-04-15 07:04 52.45491 9.71102 181 ft 3 kts 175°
2026-04-15 07:05 52.45439 9.71088 182 ft 11 kts 207°
2026-04-15 07:05 52.45408 9.70976 183 ft 11 kts 271°
2026-04-15 07:05 52.45409 9.70940 183 ft 0 kts 272°
2026-04-15 07:08 52.45413 9.70781 180 ft 47 kts 272°
2026-04-15 07:08 52.45439 9.69799 177 ft 121 kts 272°
2026-04-15 07:08 52.45479 9.68180 426 ft 153 kts 270°
2026-04-15 07:08 52.45527 9.66433 1189 ft 155 kts 269°
2026-04-15 07:09 52.45569 9.64581 1745 ft 172 kts 269°
2026-04-15 07:09 52.45614 9.62491 2167 ft 196 kts 270°
2026-04-15 07:09 52.45668 9.60137 2775 ft 213 kts 270°
2026-04-15 07:09 52.45730 9.57676 3743 ft 217 kts 270°
2026-04-15 07:10 52.45561 9.55226 4682 ft 218 kts 250°
2026-04-15 07:10 52.44819 9.53064 5592 ft 221 kts 227°
2026-04-15 07:10 52.43603 9.51524 6498 ft 223 kts 208°
2026-04-15 07:10 52.42259 9.50274 7321 ft 228 kts 210°
2026-04-15 07:11 52.40870 9.48973 8132 ft 233 kts 210°
2026-04-15 07:11 52.39445 9.47634 8944 ft 239 kts 211°
2026-04-15 07:11 52.37987 9.46263 9807 ft 243 kts 211°
2026-04-15 07:11 52.36517 9.44878 10675 ft 245 kts 212°
2026-04-15 07:12 52.35034 9.43480 11547 ft 247 kts 212°
2026-04-15 07:12 52.33471 9.42298 12411 ft 251 kts 198°
2026-04-15 07:12 52.31703 9.41865 13032 ft 269 kts 181°
2026-04-15 07:12 52.29777 9.42113 13377 ft 294 kts 177°
2026-04-15 07:13 52.27662 9.42441 13693 ft 317 kts 177°
2026-04-15 07:13 52.25385 9.42792 14055 ft 337 kts 177°
2026-04-15 07:13 52.23017 9.43160 14671 ft 345 kts 177°
2026-04-15 07:13 52.20604 9.43535 15376 ft 351 kts 177°
2026-04-15 07:14 52.18159 9.43907 16079 ft 355 kts 177°
2026-04-15 07:14 52.15684 9.44281 16769 ft 360 kts 177°
2026-04-15 07:14 52.13170 9.44659 17458 ft 364 kts 177°
2026-04-15 07:14 52.10664 9.45034 18155 ft 369 kts 177°
2026-04-15 07:15 52.08089 9.45418 18801 ft 374 kts 177°
2026-04-15 07:15 52.05483 9.45806 19403 ft 378 kts 177°
2026-04-15 07:15 52.02852 9.46197 20007 ft 382 kts 177°
2026-04-15 07:15 52.00190 9.46594 20622 ft 386 kts 176°
2026-04-15 07:16 51.97508 9.46991 21219 ft 389 kts 176°
2026-04-15 07:16 51.94798 9.47392 21815 ft 393 kts 176°
2026-04-15 07:16 51.92062 9.47799 22393 ft 397 kts 176°
2026-04-15 07:16 51.89333 9.48206 22950 ft 401 kts 176°
2026-04-15 07:17 51.86546 9.48621 23510 ft 404 kts 176°
2026-04-15 07:17 51.83732 9.49033 24032 ft 408 kts 176°
2026-04-15 07:17 51.80887 9.49449 24488 ft 412 kts 176°
2026-04-15 07:17 51.78019 9.49869 24914 ft 416 kts 176°
2026-04-15 07:18 51.75121 9.50292 25337 ft 421 kts 176°
2026-04-15 07:18 51.72190 9.50524 25742 ft 423 kts 184°
2026-04-15 07:18 51.69261 9.49993 26147 ft 424 kts 194°
2026-04-15 07:18 51.66432 9.48655 26550 ft 425 kts 205°
2026-04-15 07:19 51.63813 9.46591 26923 ft 425 kts 214°
2026-04-15 07:19 51.61264 9.44142 27227 ft 429 kts 214°
2026-04-15 07:19 51.58705 9.41704 27294 ft 421 kts 214°
2026-04-15 07:19 51.56233 9.39377 27297 ft 405 kts 214°
2026-04-15 07:20 51.53821 9.37115 27296 ft 399 kts 214°
2026-04-15 07:20 51.51431 9.34872 27295 ft 397 kts 214°
2026-04-15 07:20 51.49048 9.32634 27296 ft 397 kts 214°
2026-04-15 07:20 51.46667 9.30393 27296 ft 397 kts 214°
2026-04-15 07:21 51.44183 9.28428 27293 ft 400 kts 204°
2026-04-15 07:21 51.41532 9.27240 27295 ft 404 kts 192°
2026-04-15 07:21 51.38720 9.26859 27295 ft 407 kts 180°
2026-04-15 07:21 51.35888 9.27003 27295 ft 407 kts 179°
2026-04-15 07:22 51.33056 9.27152 27293 ft 407 kts 180°
2026-04-15 07:22 51.30220 9.27293 27296 ft 407 kts 180°
2026-04-15 07:22 51.27392 9.27423 27294 ft 407 kts 180°
2026-04-15 07:22 51.24562 9.27550 27294 ft 407 kts 180°
2026-04-15 07:23 51.21730 9.27679 27292 ft 407 kts 180°
2026-04-15 07:23 51.18911 9.27809 27049 ft 402 kts 180°
2026-04-15 07:23 51.16130 9.27939 26796 ft 399 kts 179°
2026-04-15 07:23 51.13400 9.28068 26548 ft 396 kts 179°
2026-04-15 07:24 51.10656 9.28191 26300 ft 393 kts 180°
2026-04-15 07:24 51.07932 9.28218 26053 ft 390 kts 181°
2026-04-15 07:24 51.05228 9.28156 25808 ft 388 kts 182°
2026-04-15 07:24 51.02538 9.28052 25565 ft 385 kts 182°
2026-04-15 07:25 50.99873 9.27938 25318 ft 383 kts 182°
2026-04-15 07:25 50.97215 9.27835 25090 ft 380 kts 182°
2026-04-15 07:25 50.94584 9.28080 24839 ft 378 kts 171°
2026-04-15 07:25 50.92038 9.29103 24604 ft 376 kts 160°
2026-04-15 07:26 50.89673 9.30832 24377 ft 374 kts 150°
2026-04-15 07:26 50.87359 9.32518 24141 ft 371 kts 166°
2026-04-15 07:26 50.84816 9.32893 23914 ft 367 kts 186°
2026-04-15 07:26 50.82355 9.31963 23649 ft 363 kts 204°
2026-04-15 07:27 50.80198 9.29950 23373 ft 359 kts 220°
2026-04-15 07:27 50.78250 9.27488 23109 ft 358 kts 220°
2026-04-15 07:27 50.76305 9.25036 22836 ft 357 kts 220°
2026-04-15 07:27 50.74369 9.22598 22570 ft 355 kts 220°
2026-04-15 07:28 50.72442 9.20172 22301 ft 354 kts 220°
2026-04-15 07:28 50.70527 9.17758 22035 ft 352 kts 220°
2026-04-15 07:28 50.68615 9.15352 21783 ft 351 kts 220°
2026-04-15 07:28 50.66740 9.12993 21527 ft 349 kts 220°
2026-04-15 07:29 50.64847 9.10610 21271 ft 347 kts 220°
2026-04-15 07:29 50.62961 9.08238 21020 ft 346 kts 220°
2026-04-15 07:29 50.61084 9.05879 20769 ft 345 kts 220°
2026-04-15 07:29 50.59215 9.03534 20522 ft 343 kts 220°
2026-04-15 07:30 50.57352 9.01198 20271 ft 342 kts 220°
2026-04-15 07:30 50.55497 8.98874 20023 ft 340 kts 220°
2026-04-15 07:30 50.53647 8.96561 19797 ft 339 kts 220°
2026-04-15 07:30 50.51827 8.94289 19548 ft 339 kts 220°
2026-04-15 07:31 50.49984 8.91990 19310 ft 338 kts 220°
2026-04-15 07:31 50.48149 8.89705 19075 ft 336 kts 220°
2026-04-15 07:31 50.46320 8.87429 18841 ft 335 kts 220°
2026-04-15 07:31 50.44498 8.85162 18608 ft 334 kts 220°
2026-04-15 07:32 50.42681 8.82905 18332 ft 332 kts 220°
2026-04-15 07:32 50.40871 8.80663 18064 ft 330 kts 220°
2026-04-15 07:32 50.39072 8.78437 17795 ft 328 kts 220°
2026-04-15 07:32 50.37283 8.76224 17535 ft 326 kts 220°
2026-04-15 07:33 50.35508 8.74024 17273 ft 324 kts 220°
2026-04-15 07:33 50.33742 8.71840 17013 ft 322 kts 220°
2026-04-15 07:33 50.32012 8.69704 16747 ft 321 kts 219°
2026-04-15 07:33 50.30259 8.67541 16504 ft 320 kts 219°
2026-04-15 07:34 50.28518 8.65395 16252 ft 318 kts 219°
2026-04-15 07:34 50.26784 8.63254 15997 ft 316 kts 219°
2026-04-15 07:34 50.25061 8.61130 15750 ft 315 kts 219°
2026-04-15 07:34 50.23346 8.59019 15501 ft 313 kts 219°
2026-04-15 07:35 50.21642 8.56926 15257 ft 311 kts 219°
2026-04-15 07:35 50.19939 8.54839 14860 ft 312 kts 219°
2026-04-15 07:35 50.18235 8.52754 14480 ft 312 kts 219°
2026-04-15 07:35 50.16549 8.50691 14096 ft 311 kts 219°
2026-04-15 07:36 50.14848 8.48610 13677 ft 311 kts 219°
2026-04-15 07:36 50.13153 8.46512 13254 ft 310 kts 222°
2026-04-15 07:36 50.11686 8.44074 12837 ft 308 kts 234°
2026-04-15 07:36 50.10584 8.41231 12416 ft 306 kts 246°
2026-04-15 07:37 50.09811 8.38148 12009 ft 305 kts 250°
2026-04-15 07:37 50.09067 8.35054 11607 ft 304 kts 250°
2026-04-15 07:37 50.08573 8.33015 11354 ft 303 kts 249°
2026-04-15 07:37 50.07829 8.29955 10955 ft 302 kts 249°
2026-04-15 07:38 50.07085 8.26901 10566 ft 301 kts 249°
2026-04-15 07:38 50.06345 8.23859 10181 ft 300 kts 249°
2026-04-15 07:38 50.05370 8.19861 9621 ft 298 kts 249°
2026-04-15 07:38 50.04638 8.16864 9198 ft 296 kts 249°
2026-04-15 07:39 50.03913 8.13896 8783 ft 294 kts 249°
2026-04-15 07:39 50.03420 8.11878 8500 ft 293 kts 249°
2026-04-15 07:39 50.02710 8.08969 8107 ft 290 kts 249°
2026-04-15 07:39 50.01995 8.06050 7693 ft 289 kts 249°
2026-04-15 07:40 50.01282 8.03184 7293 ft 278 kts 245°
2026-04-15 07:40 50.00169 8.00811 6896 ft 271 kts 218°
2026-04-15 07:40 49.98501 7.99556 6496 ft 267 kts 189°
2026-04-15 07:40 49.96671 7.99646 6080 ft 264 kts 163°
2026-04-15 07:41 49.95068 8.00901 5804 ft 253 kts 139°
2026-04-15 07:41 49.93988 8.02903 5548 ft 235 kts 117°
2026-04-15 07:41 49.93492 8.05258 5297 ft 229 kts 96°
2026-04-15 07:41 49.93571 8.07705 5067 ft 227 kts 76°
2026-04-15 07:42 49.94083 8.09966 4992 ft 216 kts 70°
2026-04-15 07:42 49.94595 8.12054 5000 ft 206 kts 70°
2026-04-15 07:42 49.95108 8.14157 5000 ft 209 kts 70°
2026-04-15 07:42 49.95624 8.16273 5003 ft 210 kts 70°
2026-04-15 07:43 49.96142 8.18398 4845 ft 210 kts 70°
2026-04-15 07:43 49.96657 8.20517 4570 ft 210 kts 70°
2026-04-15 07:43 49.97167 8.22618 4274 ft 205 kts 69°
2026-04-15 07:43 49.97663 8.24660 3982 ft 199 kts 70°
2026-04-15 07:44 49.98144 8.26642 3701 ft 194 kts 70°
2026-04-15 07:44 49.98611 8.28570 3460 ft 188 kts 70°
2026-04-15 07:44 49.99057 8.30411 3157 ft 181 kts 70°
2026-04-15 07:44 49.99496 8.32229 2907 ft 176 kts 71°
2026-04-15 07:45 49.99911 8.33945 2647 ft 162 kts 70°
2026-04-15 07:45 50.00294 8.35527 2412 ft 152 kts 71°
2026-04-15 07:45 50.00654 8.37022 2199 ft 144 kts 71°
2026-04-15 07:45 50.00989 8.38407 2013 ft 133 kts 72°
2026-04-15 07:46 50.01307 8.39728 1809 ft 128 kts 71°
2026-04-15 07:46 50.01620 8.41029 1629 ft 129 kts 71°
2026-04-15 07:46 50.01932 8.42324 1403 ft 128 kts 70°
2026-04-15 07:46 50.02238 8.43601 1199 ft 129 kts 70°
2026-04-15 07:47 50.02549 8.44915 1026 ft 130 kts 69°
2026-04-15 07:47 50.02862 8.46226 839 ft 130 kts 68°
2026-04-15 07:47 50.03178 8.47536 658 ft 130 kts 66°
2026-04-15 07:47 50.03498 8.48845 472 ft 129 kts 67°
2026-04-15 07:48 50.03811 8.50149 323 ft 125 kts 67°
2026-04-15 07:48 50.04071 8.51225 327 ft 83 kts 70°
2026-04-15 07:48 50.04212 8.51812 332 ft 33 kts 69°
2026-04-15 07:48 50.04237 8.52117 340 ft 28 kts 93°
2026-04-15 07:49 50.04209 8.52409 351 ft 23 kts 99°
2026-04-15 07:49 50.04191 8.52611 349 ft 18 kts 91°
2026-04-15 07:49 50.04230 8.52799 354 ft 19 kts 69°
2026-04-15 07:49 50.04277 8.52997 357 ft 20 kts 69°
2026-04-15 07:50 50.04327 8.53201 361 ft 19 kts 69°
2026-04-15 07:50 50.04370 8.53381 370 ft 17 kts 70°
2026-04-15 07:50 50.04397 8.53549 375 ft 17 kts 83°
2026-04-15 07:50 50.04410 8.53748 375 ft 21 kts 84°
2026-04-15 07:51 50.04429 8.53989 375 ft 24 kts 84°
2026-04-15 07:51 50.04447 8.54268 375 ft 28 kts 84°
2026-04-15 07:51 50.04440 8.54548 370 ft 28 kts 108°
2026-04-15 07:51 50.04314 8.54769 357 ft 24 kts 153°
2026-04-15 07:52 50.04161 8.54855 359 ft 26 kts 160°
2026-04-15 07:52 50.04048 8.54922 353 ft 10 kts 158°
2026-04-15 07:52 50.04016 8.54993 356 ft 7 kts 91°
2026-04-15 07:52 50.04040 8.55107 358 ft 15 kts 69°
2026-04-15 07:53 50.04080 8.55274 353 ft 18 kts 69°
2026-04-15 07:53 50.04131 8.55479 360 ft 22 kts 69°
2026-04-15 07:53 50.04184 8.55710 360 ft 23 kts 71°
2026-04-15 07:53 50.04236 8.55930 356 ft 17 kts 68°
2026-04-15 07:54 50.04266 8.55977 354 ft 3 kts 348°
2026-04-15 07:54 50.04285 8.55963 363 ft 5 kts 338°
2026-04-15 07:54 50.04327 8.55941 355 ft 8 kts 341°
2026-04-15 07:54 50.04390 8.55910 358 ft 11 kts 349°
2026-04-15 07:55 50.04477 8.55934 359 ft 15 kts 17°
2026-04-15 07:55 50.04571 8.56032 357 ft 19 kts 67°
2026-04-15 07:55 50.04667 8.56434 358 ft 18 kts 69°
2026-04-15 07:56 50.04716 8.56578 360 ft 11 kts 53°
2026-04-15 07:56 50.04761 8.56631 356 ft 8 kts 343°
2026-04-15 07:56 50.04794 8.56593 358 ft 3 kts 341°
2026-04-15 07:56 50.04809 8.56584 356 ft 0 kts 340°